Regional Weather Roundup
Issued by NWS

Home | Current Version | Previous Version | Graphics & Text | Print | Product List | Glossary On
Versions: 1 2 3 4 5 6 7 8 9 10 11 12 13 14 15 16 17 18 19 20 21 22 23 24 25 26 27 28 29 30 31 32 33 34 35 36 37 38 39 40 41 42 43 44 45 46 47 48 49 50
000
ASUS43 KDMX 231208
RWRIA

WEATHER ROUNDUP FOR IOWA
NATIONAL WEATHER SERVICE DES MOINES IA
700 AM CDT TUE AUG 23 2016

NOTE: "FAIR" INDICATES FEW OR NO CLOUDS BELOW 12,000 FEET WITH NO
SIGNIFICANT WEATHER AND/OR OBSTRUCTIONS TO VISIBILITY.

* - THESE STATIONS ARE NOT NWS STATIONS...THUS NOT UNDER NWS
QUALITY CONTROL.  THEY ALSO DO NOT REPORT WEATHER SUCH
AS PRECIPITATION OR FOG.

IAZ001>003-012>014-020>022-031>034-043>046-231300-
   NORTHWEST IOWA

CITY           SKY/WX    TMP DP  RH WIND       PRES   REMARKS
CARROLL *      MOCLDY    64  63  94 S8        29.98S
CHEROKEE *     CLOUDY    65  62  89 S8        29.94R
DENISON *      PTCLDY    66  63  88 S8G17     29.95R
LE MARS *      PTCLDY    68  63  83 S13G20    29.91S
ORANGE CITY *  PTCLDY    64  63  94 S10       29.91S
SHELDON *      CLEAR     63  63 100 S13       29.90S
SIOUX CITY     CLOUDY    65  61  87 SE10      29.91R
6HR MIN TEMP:  65; 6HR MAX TEMP:  71;

SPENCER        PTCLDY    62  59  90 S9        29.94S
6HR MIN TEMP:  62; 6HR MAX TEMP:  66;

STORM LAKE *   PTCLDY    63  61  94 S10       29.96S
$$

IAZ055>058-069>071-079>083-090>094-231300-
   SOUTHWEST IOWA

CITY           SKY/WX    TMP DP  RH WIND       PRES   REMARKS
ATLANTIC *     PTCLDY    66  63  88 S10       30.00R
AUDUBON *      PTCLDY    66  61  82 S9        30.01R
CLARINDA *       N/A     64  63  94 MISG      30.04R
COUNCIL BLFS * PTCLDY    64  63  94 S12       29.97S
CRESTON *      CLEAR     63  61  94 S9G15     30.05R
HARLAN  *      PTCLDY    64  63  94 S9        30.02R
LAMONI         CLEAR     61  61 100 S8        30.06R
6HR MIN TEMP:  61; 6HR MAX TEMP:  64;

RED OAK *      CLOUDY    66  64  94 S12       30.00R
SHENANDOAH *   PTCLDY    66 N/A N/A S7        30.00R
$$

IAZ047>049-059>061-072>074-084-231300-
   CENTRAL IOWA

CITY           SKY/WX    TMP DP  RH WIND       PRES   REMARKS
AMES           PTCLDY    60  60 100 SE8       30.03R
6HR MIN TEMP:  59; 6HR MAX TEMP:  64;

ANKENY *         N/A    N/A N/A N/A MISG        N/A
BOONE *        CLEAR     64  61  88 S8        30.02R
CHARITON *       N/A     63  61  94 MISG      30.06S
DES MOINES     CLOUDY    65  61  87 S10       30.03R
6HR MIN TEMP:  64; 6HR MAX TEMP:  68;

GRINNELL*      MOCLDY    61  58  90 S8        30.08R
KNOXVILLE *    CLOUDY    64  61  88 S8        30.05S
MARSHALLTOWN   PTCLDY    62  60  93 SE10      30.05R
6HR MIN TEMP:  62; 6HR MAX TEMP:  66;

NEWTON *       PTCLDY    61  61 100 SE6       30.06R
PERRY *          N/A     62  62  99 S7        30.01S
$$

IAZ004>006-015-016-023>025-035-036-231300-
   NORTH CENTRAL IOWA

CITY           SKY/WX    TMP DP  RH WIND       PRES   REMARKS
ALGONA *       PTCLDY    63  61  94 S10       29.98R
ESTHERVILLE    MOCLDY    61  60  97 S12       29.95S
6HR MIN TEMP:  60; 6HR MAX TEMP:  64;

FORT DODGE *   CLEAR     64  57  77 S8        30.00R
MASON CITY     PTCLDY    60  58  92 SE6       30.03S
6HR MIN TEMP:  60; 6HR MAX TEMP:  62;

FOREST CITY *    N/A     61  59  94 S9        30.01R
WEBSTER CITY * CLEAR     63  61  94 SE9       30.00R
IOWA FALLS *     N/A     61  59  92 SE7       30.05R
$$

IAZ007>011-017>019-026>030-037>042-050>054-066-231300-
   NORTHEAST IOWA

CITY           SKY/WX    TMP DP  RH WIND       PRES   REMARKS
CEDAR RAPIDS   CLOUDY    61  61 100 S7        30.10R
6HR MIN TEMP:  60; 6HR MAX TEMP:  64;

CHARLES CITY * PTCLDY    61  61 100 S8        30.05S
CLINTON *      CLEAR     61  59  93 SE8       30.15R
DECORAH *      PTCLDY    61  59  94 S8        30.07R
DUBUQUE        CLEAR     60  57  89 S6        30.13R
6HR MIN TEMP:  59; 6HR MAX TEMP:  64;

MONTICELLO *   PTCLDY    61  57  88 SE5       30.11R
OELWEIN *      PTCLDY    61  59  94 S10       30.09R
WATERLOO       PTCLDY    63  58  83 S9        30.05R
6HR MIN TEMP:  63; 6HR MAX TEMP:  66;

$$

IAZ064-065-067-068-078-231300-
   EAST CENTRAL IOWA

CITY           SKY/WX    TMP DP  RH WIND       PRES   REMARKS
DAVENPORT      CLEAR     63  59  87 S7        30.14R
6HR MIN TEMP:  61; 6HR MAX TEMP:  66;

IOWA CITY      CLOUDY    61  58  90 SE3       30.12R
6HR MIN TEMP:  60; 6HR MAX TEMP:  64;

MT. PLEASANT * PTCLDY    65  64  97 SE5       30.13R
MUSCATINE *    PTCLDY    59  55  88 CALM      30.13R
QUAD CITIES    CLEAR     63  58  83 S6        30.13R
6HR MIN TEMP:  59; 6HR MAX TEMP:  65;

$$

IAZ062-063-075>077-085>089-095>099-231300-
   SOUTHEAST IOWA

CITY           SKY/WX    TMP DP  RH WIND       PRES   REMARKS
BURLINGTON     PTCLDY    61  60  97 S5        30.14R
6HR MIN TEMP:  59; 6HR MAX TEMP:  65;

FAIRFIELD *    PTCLDY    63  59  88 S8        30.10S
FORT MADISON * CLOUDY    63  61  94 S6        30.14S
KEOKUK *       CLEAR     63  59  88 SE7       30.13R
OSKALOOSA *      N/A     59  58  97 SE7       30.09R
CENTERVILLE *    N/A     59  59 100 CALM      30.10S
OTTUMWA        PTCLDY    62  59  90 S9        30.09R
6HR MIN TEMP:  62; 6HR MAX TEMP:  64;

WASHINGTON *   CLOUDY    63  61  94 S7        30.12R
$$

ABBREVIATIONS USED IN REMARKS
   TC - TEMPERATURES IN CELSIUS
  WCI - WIND CHILL INDEX
   HX - HEAT INDEX
  VSB - VISIBILITY
$$





USA.gov is the U.S. government's official web portal to all federal, state and local government web resources and services.